Location: Codford Saint Peter
(51.1597°N, 2.0531°W)
Time: 09:09:02
(UTC+00:00)

Cosmos 1544 - Visible Passes

Search period start: 04 March 2024 00:00
Search period end: 14 March 2024 00:00
Orbit: 380 x 387 km, 82.5° (Epoch: 03 March)

Date Brightness Start Highest point End Pass type
(mag) Time Alt. Az. Time Alt. Az. Time Alt. Az.
04 Mar 5.5 03:56:41 10° NNE 03:57:33 15° NNE 03:57:33 15° NNE visible
04 Mar 6.0 19:02:11 10° W 19:03:39 13° WNW 19:05:06 10° NW visible
06 Mar 5.9 18:42:04 10° W 18:43:44 14° WNW 18:45:26 10° NNW visible
